Waarnemingen

Advertentie
Mijn weer
Messina, Italië (16420): temperatuur & dauwpunt: 05.12.2018 17:00:00 - 11.12.2018 17:00:00 (CET)Messina, Italië (16420): windsnelheid: 05.12.2018 17:00:00 - 11.12.2018 17:00:00 (CET)Messina, Italië (16420): windrichting: 05.12.2018 17:00:00 - 11.12.2018 17:00:00 (CET)Messina, Italië (16420): luchtdruk: 05.12.2018 17:00:00 - 11.12.2018 17:00:00 (CET)Messina, Italië (16420): zicht: 05.12.2018 17:00:00 - 11.12.2018 17:00:00 (CET)Messina, Italië (16420): Zonneschijnduur: 05.12.2018 17:00:00 - 11.12.2018 17:00:00 (CET)
Datum & Tijd tt [°C] td [°C] ff [km/u] ff [kn] dd ppp [hPa] vv [km] sd [min]
11.12.2018 17:00:00 - - - - - - - -
11.12.2018 16:00:00 14,0 1,3 8 4 N 1016,5 20 12
11.12.2018 15:00:00 15,0 1,2 9 5 N 1016,3 20 60
11.12.2018 14:00:00 15,6 2,1 11 6 NNW 1016,1 20 60
11.12.2018 13:00:00 15,4 0,8 15 8 NNW 1016,4 20 60
11.12.2018 12:00:00 15,2 3,0 15 8 NNW 1016,5 20 60
11.12.2018 11:00:00 14,8 4,8 13 7 N 1016,5 20 60
11.12.2018 10:00:00 14,6 5,5 21 11 N 1016,3 20 48
11.12.2018 09:00:00 14,0 5,1 13 7 N 1015,5 15 48
11.12.2018 08:00:00 13,6 6,0 15 8 N 1014,5 14 12
11.12.2018 07:00:00 13,4 5,3 11 6 NNW 1014,5 14 0
11.12.2018 06:00:00 13,2 4,9 13 7 NNW 1014,3 14 -
11.12.2018 05:00:00 13,0 3,9 9 5 NNW 1014,2 14 -
11.12.2018 04:00:00 13,6 5,3 13 7 NW 1014,3 10 -
11.12.2018 03:00:00 13,4 7,4 15 8 NNW 1014,1 8 -
11.12.2018 02:00:00 14,0 5,6 18 10 NNW 1013,8 16 -
11.12.2018 01:00:00 15,0 7,1 11 6 WNW 1013,7 14 -
11.12.2018 00:00:00 13,0 3,9 9 5 WNW 1014,0 14 -
10.12.2018 23:00:00 13,6 5,2 15 8 W 1013,7 12 -
10.12.2018 22:00:00 12,0 8,1 8 4 NNW 1013,7 10 -
10.12.2018 21:00:00 10,6 8,4 9 5 NW 1013,9 8 -
10.12.2018 20:00:00 11,0 8,9 8 4 NW 1013,9 4,0 -
10.12.2018 19:00:00 13,6 9,5 9 5 ONO 1013,4 8 -
10.12.2018 18:00:00 14,0 8,2 13 7 NNW 1013,5 12 -
10.12.2018 17:00:00 15,6 9,9 9 5 W 1013,4 12 0
10.12.2018 16:00:00 15,8 9,9 22 12 WNW 1013,4 12 6
10.12.2018 15:00:00 16,0 10,3 22 12 WNW 1013,5 12 18
10.12.2018 14:00:00 16,0 10,5 21 11 WNW 1013,7 12 18
10.12.2018 13:00:00 16,4 10,3 24 13 NW 1014,3 12 54
10.12.2018 12:00:00 16,4 11,5 26 14 WNW 1014,4 12 24
10.12.2018 11:00:00 17,2 10,3 18 10 WNW 1014,4 8 60
10.12.2018 10:00:00 16,2 9,2 21 11 NNW 1014,2 10 60
10.12.2018 09:00:00 15,6 9,9 21 11 NW 1013,3 10 30
10.12.2018 08:00:00 15,0 9,8 15 8 WNW 1012,9 10 0
10.12.2018 07:00:00 15,0 8,9 15 8 NW 1012,6 9 -
10.12.2018 06:00:00 14,8 8,7 21 11 NNW 1012,4 12 -
10.12.2018 05:00:00 13,2 8,9 15 8 NNO 1012,4 12 -
10.12.2018 04:00:00 12,8 10,5 22 12 NW 1012,5 12 -
10.12.2018 03:00:00 16,0 11,8 21 11 NNW 1012,4 14 -
10.12.2018 02:00:00 16,0 11,6 21 11 W 1012,5 14 -
10.12.2018 01:00:00 16,4 8,9 31 17 ONO 1012,5 14 -
10.12.2018 00:00:00 16,4 11,1 35 19 WNW 1013,1 14 -
09.12.2018 23:00:00 16,4 11,8 39 21 WNW 1014,3 14 -
09.12.2018 22:00:00 16,2 12,4 31 17 WNW 1014,5 14 -
09.12.2018 21:00:00 16,8 12,1 34 18 WNW 1014,7 14 -
09.12.2018 20:00:00 16,6 12,0 31 17 NW 1014,7 16 -
09.12.2018 19:00:00 15,8 11,0 35 19 NW 1014,8 14 -
09.12.2018 18:00:00 15,6 9,3 16 9 NW 1015,3 14 -
09.12.2018 17:00:00 15,2 8,4 13 7 NW 1015,5 14 0
09.12.2018 16:00:00 16,0 11,0 15 8 NW 1015,6 10 60
09.12.2018 15:00:00 15,8 11,2 22 12 NNW 1016,5 10 0
09.12.2018 14:00:00 15,0 8,5 8 4 NNW 1017,0 12 0
09.12.2018 13:00:00 16,4 8,6 16 9 NW 1017,6 16 60
09.12.2018 12:00:00 16,4 9,4 16 9 NNW 1017,8 16 60
09.12.2018 11:00:00 16,4 8,4 11 6 NNO 1017,9 10 60
09.12.2018 10:00:00 15,8 6,5 16 9 N 1018,2 18 60
09.12.2018 09:00:00 15,4 5,9 15 8 NO 1018,1 18 48
09.12.2018 08:00:00 15,0 5,2 13 7 N 1017,6 18 0
09.12.2018 07:00:00 15,0 7,1 21 11 NNW 1017,0 10 0
09.12.2018 06:00:00 15,0 7,3 13 7 NNW 1016,6 12 -
09.12.2018 05:00:00 15,0 8,2 22 12 NNW 1016,4 12 -
09.12.2018 04:00:00 15,0 8,9 13 7 NNW 1016,5 12 -
09.12.2018 03:00:00 15,0 8,5 11 6 NNW 1016,5 12 -
09.12.2018 02:00:00 15,0 8,9 11 6 NW 1016,3 12 -
09.12.2018 01:00:00 15,0 7,8 15 8 NNW 1016,3 12 -
09.12.2018 00:00:00 15,0 8,0 21 11 NW 1016,3 12 -
08.12.2018 23:00:00 15,2 7,5 18 10 NNO 1016,3 12 -
08.12.2018 22:00:00 15,2 8,9 13 7 NNO 1016,2 12 -
08.12.2018 21:00:00 15,4 8,9 16 9 NNW 1015,7 12 -
08.12.2018 20:00:00 15,0 7,1 18 10 WNW 1015,5 10 -
08.12.2018 19:00:00 15,0 7,1 15 8 NNW 1015,5 12 -
08.12.2018 18:00:00 15,0 6,8 11 6 N 1015,2 12 -
08.12.2018 17:00:00 14,4 11,5 8 4 NW 1014,9 12 0
08.12.2018 16:00:00 16,8 12,1 16 9 WNW 1014,6 20 0
08.12.2018 15:00:00 16,8 12,5 8 4 WNW 1015,0 20 0
08.12.2018 14:00:00 17,2 12,1 18 10 WNW 1015,3 20 54
08.12.2018 13:00:00 17,2 10,1 16 9 WNW 1016,0 20 24
08.12.2018 12:00:00 17,2 8,6 11 6 W 1016,5 20 30
08.12.2018 11:00:00 17,6 7,6 4 2 - 1016,8 20 60
08.12.2018 10:00:00 17,0 7,6 9 5 WNW 1017,7 20 54
08.12.2018 09:00:00 15,8 9,0 4 2 ZZW 1017,6 20 54
08.12.2018 08:00:00 15,0 9,4 5 3 NW 1017,8 18 0
08.12.2018 07:00:00 14,0 10,4 4 2 NO 1018,4 18 0
08.12.2018 06:00:00 14,0 10,4 4 2 NNO 1018,5 15 -
08.12.2018 05:00:00 13,8 10,4 4 2 N 1019,4 15 -
08.12.2018 04:00:00 14,0 10,6 5 3 N 1019,5 15 -
08.12.2018 03:00:00 14,0 11,5 8 4 NW 1019,8 15 -
08.12.2018 02:00:00 12,6 10,1 2 1 WNW 1020,5 10 -
08.12.2018 01:00:00 12,8 10,4 0 0 N 1020,6 15 -
08.12.2018 00:00:00 13,8 10,0 0 0 N 1020,8 15 -
07.12.2018 23:00:00 13,2 10,4 0 0 N 1021,4 15 -
07.12.2018 22:00:00 13,0 10,2 2 1 W 1021,5 15 -
07.12.2018 21:00:00 13,0 10,0 0 0 N 1021,6 15 -
07.12.2018 20:00:00 13,0 10,0 2 1 NO 1021,6 15 -
07.12.2018 19:00:00 14,8 11,2 5 3 NW 1021,3 15 -
07.12.2018 18:00:00 14,8 10,8 4 2 N 1021,1 15 -
07.12.2018 17:00:00 15,8 10,4 8 4 ZZW 1020,7 20 0
07.12.2018 16:00:00 16,4 10,3 15 8 ZZW 1020,5 20 36
07.12.2018 15:00:00 18,0 9,6 13 7 ZZW 1020,4 20 60
07.12.2018 14:00:00 19,0 8,7 11 6 ZZW 1020,4 20 60
07.12.2018 13:00:00 19,0 8,7 8 4 ZZW 1020,5 20 60
07.12.2018 12:00:00 17,8 7,8 8 4 ZZO 1020,6 20 42
07.12.2018 11:00:00 16,8 10,7 9 5 ZZW 1020,6 20 30
07.12.2018 10:00:00 16,8 10,7 9 5 ZZW 1020,5 20 60
07.12.2018 09:00:00 15,6 10,8 4 2 ZW 1020,3 20 60
07.12.2018 08:00:00 13,6 10,0 4 2 W 1019,6 20 24
07.12.2018 07:00:00 14,2 10,0 4 2 NNO 1019,3 20 0
07.12.2018 06:00:00 14,8 10,4 5 3 W 1018,7 12 -
07.12.2018 05:00:00 14,0 10,0 8 4 WNW 1018,5 12 -
07.12.2018 04:00:00 13,8 9,8 11 6 NW 1018,5 12 -
07.12.2018 03:00:00 13,6 10,4 2 1 NW 1018,5 12 -
07.12.2018 02:00:00 13,6 10,6 0 0 N 1018,8 10 -
07.12.2018 01:00:00 14,0 11,0 4 2 NW 1019,0 12 -
07.12.2018 00:00:00 14,0 11,4 4 2 NNW 1019,0 12 -
06.12.2018 23:00:00 14,0 11,4 0 0 N 1019,0 10 -
06.12.2018 22:00:00 14,0 11,5 5 3 WZW 1019,0 12 -
06.12.2018 21:00:00 14,4 11,9 0 0 N 1019,4 16 -
06.12.2018 20:00:00 14,8 12,0 0 0 N 1019,3 18 -
06.12.2018 19:00:00 15,0 11,6 4 2 W 1019,2 18 -
06.12.2018 18:00:00 15,0 11,6 5 3 W 1019,3 18 0
06.12.2018 17:00:00 15,6 11,6 4 2 NNO 1019,3 20 0
06.12.2018 16:00:00 16,4 11,3 8 4 NNO 1019,3 20 0
06.12.2018 15:00:00 17,2 11,5 9 5 ONO 1019,6 20 6
06.12.2018 14:00:00 18,0 10,6 13 7 NO 1020,2 20 48
06.12.2018 13:00:00 17,8 8,9 8 4 N 1020,6 20 60
06.12.2018 12:00:00 18,2 10,1 8 4 W 1021,8 20 60
06.12.2018 11:00:00 17,2 10,8 9 5 NW 1022,5 20 60
06.12.2018 10:00:00 16,4 12,0 5 3 NNW 1022,5 20 60
06.12.2018 09:00:00 15,0 11,2 8 4 NNO 1022,7 20 6
06.12.2018 08:00:00 14,6 11,0 9 5 NW 1022,6 20 0
06.12.2018 07:00:00 14,8 11,0 9 5 NW 1022,6 20 0
06.12.2018 06:00:00 14,8 10,6 8 4 NNW 1022,8 20 -
06.12.2018 05:00:00 14,8 10,4 16 9 NW 1022,7 20 -
06.12.2018 04:00:00 14,8 10,2 15 8 NW 1023,0 20 -
06.12.2018 03:00:00 15,0 10,4 16 9 WNW 1023,2 20 -
06.12.2018 02:00:00 15,0 10,2 18 10 NW 1023,6 20 -
06.12.2018 01:00:00 15,0 10,6 9 5 NW 1023,6 20 -
06.12.2018 00:00:00 15,2 11,0 11 6 NW 1023,7 20 -
05.12.2018 23:00:00 14,6 10,6 13 7 NW 1023,7 20 -
05.12.2018 22:00:00 15,0 10,4 15 8 NW 1023,7 20 -
05.12.2018 21:00:00 14,2 9,8 11 6 NW 1023,6 20 -
05.12.2018 20:00:00 14,0 9,7 4 2 N 1023,3 20 -
05.12.2018 19:00:00 14,6 9,2 4 2 NNW 1022,7 20 -
05.12.2018 18:00:00 15,2 8,9 4 2 N 1022,3 20 0
05.12.2018 17:00:00 15,8 8,8 4 2 WNW 1021,8 20 0

tt = temperatuur
td = dauwpunt
ff = windsnelheid
dd = windrichting
ppp = luchtdruk
vv = zicht
sd = Zonneschijnduur

Weerstations in de omgeving